ECHOSTAR 7

导读

EchoStar 7(回声星7号)是由美国EchoStar公司运营、洛克希德·马丁公司制造的地球静止轨道通信卫星,于北京时间2002年2月21日从卡纳维拉尔角太空军基地发射升空。卫星发射质量约4172千克,设计寿命12年,原定点于西经119°,主要用于直播卫星电视服务。2014年退役后因燃料不足无法到达预定墓地轨道,运营方Dish因此被美国FCC处罚,成为太空碎片整治首例罚款案例。

Basic Information
目录编号:
27378
目录名称:
ECHOSTAR 7
国际标识:
2002-006A
轨道中心:
EARTH
卫星名称:
ECHOSTAR 7
卫星全名:
--
卫星状态:
在轨 (已飞行8922 天)
发射日期:
2002-02-21 UTC
国别 :
美国 (US)
星等 :
--
Orbit Information
数据来源 国际轨道数据
星历时间: 2026-07-27T20:25:12+0800
11小时前
查看轨道信息
半长轴: 42287.089km
偏心率: 0.0002184
轨道倾角: 4.114°
近地点辐角 36.714°
升交点赤经 76.901°
平近点角 299.500°
近地点: 35899.716km
远地点: 35918.188km
周期: 1442.352分钟
每日圈数: 0.998369
Detailed Information
使用方式:
暂无
2D Orbit Map
3D Orbit Map
Orbit Altitude Analysis Chart
Orbit Inclination Analysis Chart
Orbit Comprehensive Analysis Chart
View Comprehensive Chart